Kezdőlap
METAR-TAF:

METAR-TAF

Repülőterek :

Pipestone Municipal Airport

Pipestone, Minnesota, Amerikai Egyesült Államok

földrajzi szélesség: 43-59N, földrajzi hosszúság: 096-19W, magasság: 529 m

Jelenlegi meteorológiai megfigyelések

A jelentés 30 perccel ezelõtt készült, 15:35 UTC
Délkeleti szél 6 kt
Hőmérséklet 11°C
Páratartalom 30%
Légköri nyomás 1029 hPa
Látótávolság: 16.1 km
Derült ég

METAR: KPQN 111535Z AUTO 13006KT 10SM CLR 11/M06 A3038 RMK AO2

Idő: 11:05 (16:05 UTC)


TAF: hiányzik

Meteorológiai megfigyelések és előrejelzések több, mint 4000 repülőtéren (METAR és TAF jelentéseket).

A térképen piros és sárga pontok jelzik az elérhető meteorológiai állomásokat.

Mozgassa az egeret a pont fölött, hogy megjelenjen az állomás neve.

Azután kattintson az időjárási megfigyelések és előrejelzések megtekintéséhez.

A térkép megváltoztatása: kattintson a fekete keresztel jelölt zöld gombra ráközelítéshez, a vonallal jelölt zöld gombra távolításhoz, vagy a zöld nyilakra a szomszédos térképek eléréséhez.


METAR-TAF: